Location: Hains Lake
(37.8540°N, 99.8578°W)
Time: 07:49:11
(UTC+00:00)

Vanguard 3 - Pass Details

Date: 27 April 2021
Orbit: 508 x 3262 km, 33.3° (Epoch: 09 May)

Event Time Altitude Azimuth Distance (km) Brightness Sun altitude
Exits shadow 10:18:54 20° 183° (S) 1,252 7.8 -16.6°
Drops below altitude 10° 10:20:52 10° 152° (SSE) 1,709 8.8 -16.3°
Sets 10:23:20 0° 135° (SE) 2,610 9.9 -15.9°
